[[{"header":{"parameterUnit":"m.s-1","parameterCategory":1,"la1":30.2991,"la2":30.254,"lo1":-89.0895,"lo2":-89.0444,"dy":0.0017,"dx":0.0017,"nx":28,"ny":28,"refTime":"2025-06-09T21:00:00:Z","depth":0,"parameterNumber":2,"parameterNumberName":"U-component_of_WINDS"},"data":[0,0,0,0,0,0,0,0,0,0,0,0,0,0,0,0,0,0,0,0,0,0,0,0,0,0,0,0,0,0,0,0,0,0,0,0,0,0,0,0,0,0,0,0,0,0,0,0,0,0,0,0,0,0,0,0,0,0,1.9854,1.9854,0,1.9861,1.9861,1.9861,1.9818,1.9817,1.9815,1.9814,1.9827,1.9829,1.983,0,0,0,0,0,0,0,0,0,0,0,0,0,1.9807,1.9808,1.9854,1.9854,1.9854,1.9861,1.9861,1.9861,1.9818,1.9817,1.9815,1.9814,1.9827,1.9828,1.983,0,0,0,0,0,0,0,0,0,0,0,0,0,1.9822,1.9808,1.9854,1.9833,1.9831,1.9861,1.9861,1.9861,1.9818,1.9817,1.9815,1.9813,1.9826,1.9828,1.983,1.9882,0,0,1.9837,1.9838,0,0,0,0,0,0,0,0,1.9821,1.9824,1.9836,1.9834,1.9832,1.9837,1.9849,1.9869,1.9819,1.9823,1.9814,1.9812,1.9832,1.9834,1.9839,1.9883,1.9883,1.9838,1.9839,1.984,1.9841,0,0,0,0,0,0,0,1.982,1.9823,1.9857,1.9836,1.9834,1.9825,1.9825,1.9853,1.9838,1.9823,1.982,1.9821,1.9831,1.9837,1.9839,1.9883,1.9837,1.9839,1.9841,1.9842,1.997,1.9972,0,0,0,0,0,0,1.9821,1.9823,1.9856,1.9857,1.9822,1.9827,1.9828,1.9837,1.9838,1.9836,1.9823,1.9819,1.9834,1.9837,1.984,1.99,1.984,1.9842,1.9843,1.9968,1.9971,1.9973,0,0,0,0,0,0,1.9821,1.9825,1.9856,1.9839,1.9842,1.983,1.9842,1.9838,1.9845,1.9838,1.9835,1.9831,1.9833,1.9837,1.9872,1.99,1.9843,1.9845,1.9966,1.9969,1.9972,2.0021,0,0,0,0,0,0,1.9819,1.9825,1.9843,1.984,1.9843,1.9886,1.9843,1.984,1.9848,1.9843,1.9845,1.9844,1.9832,1.9869,1.9874,1.9902,1.9847,1.9963,1.9967,1.9971,2.0017,2.0026,2.0033,0,0,0,0,0,1.9818,1.9857,1.9844,1.9848,1.9865,1.9888,1.989,1.9874,1.9851,1.987,1.9865,1.9844,1.9896,1.9872,1.9878,1.9907,1.9962,1.9966,1.9971,2.0014,2.0024,2.0033,0,0,0,0,0,0,1.9865,1.9857,1.9841,1.9881,1.9885,1.9881,1.9904,1.9886,1.9898,1.9893,1.9874,1.9875,1.9914,1.9915,1.9888,1.9958,1.9925,1.9931,1.9956,1.9966,1.9973,1.9972,1.9849,0,0,0,0,0,1.988,1.9898,1.989,1.9925,1.9928,1.9916,1.9925,1.9912,1.9917,1.9919,1.9917,1.9924,1.9942,1.9954,1.997,2.0018,2.0018,2.0041,2.0049,2.0055,2.0061,2.0086,2.0096,1.9988,1.9988,1.9988,0,0,1.9911,1.9909,1.9921,1.9935,1.9937,1.9957,1.9918,1.9941,1.9955,1.9923,1.9955,1.9955,1.9961,2.0003,2.0021,2.0004,2.0091,2.0061,2.0067,2.0068,2.0092,2.0102,2.0111,1.9991,1.9991,1.999,0,0,1.9978,1.9978,2.0007,2.001,2.0013,2.0005,2.0012,2.001,2.0008,2.004,2.0016,2.0035,2.0066,2.0072,2.0079,2.0149,2.013,2.0156,2.0197,2.0222,2.023,2.0238,2.0263,2.0272,2.0161,2.0161,2.0161,0,2.0017,2.0044,2.0025,2.0049,2.0056,2.0027,2.0058,2.0062,2.0071,2.0077,2.0059,2.0097,2.01,2.0142,2.0159,2.0166,2.0175,2.0154,2.023,2.0238,2.0244,2.0268,2.0277,2.0164,2.0164,2.0163,2.0163,0,2.0091,2.0111,2.0135,2.0142,2.0153,2.018,2.0167,2.018,2.0167,2.0162,2.0195,2.0197,2.0213,2.0223,2.0211,2.0264,2.0254,2.0233,2.0199,2.0258,2.028,2.0288,2.0168,2.0167,2.0166,2.0166,0,0,2.0186,2.0184,2.0193,2.0196,2.0198,2.0214,2.0241,2.0255,2.0267,2.0275,2.0298,2.0325,2.0306,2.0314,2.0303,2.0326,2.0381,2.0302,2.0302,2.0316,2.044,2.0454,2.0465,2.0369,2.0371,2.0372,2.0439,0,2.025,2.0294,2.0279,2.0324,2.0342,2.0316,2.034,2.0345,2.0341,2.0357,2.0354,2.0373,2.0347,2.0352,2.0373,2.037,2.0405,2.0365,2.0391,2.0392,2.0388,2.0476,2.0491,2.0554,2.0447,2.0449,2.045,0,2.033,2.034,2.0387,2.0386,2.0393,2.0415,2.0427,2.0443,2.0449,2.0445,2.0454,2.0439,2.0467,2.0435,2.0474,2.0447,2.0457,2.0457,2.046,2.046,2.0423,2.0478,2.0574,2.0583,2.0463,2.0462,2.0461,0,2.0394,2.0419,2.045,2.0454,2.0454,2.047,2.0471,2.0475,2.0485,2.0497,2.0503,2.0519,2.0528,2.0541,2.0531,2.0508,2.0572,2.0539,2.057,2.057,2.0583,2.0582,2.068,2.0592,2.0592,2.0592,2.0592,0,2.0466,2.0496,2.0478,2.0497,2.053,2.0514,2.0548,2.0546,2.055,2.057,2.0549,2.0568,2.0554,2.0573,2.0566,2.06,2.0604,2.0602,2.06,2.0603,2.0603,2.0608,2.0603,2.0594,2.0594,2.0593,2.0593,0,2.0541,2.0531,2.0563,2.0561,2.0561,2.0586,2.0585,2.0603,2.0598,2.0624,2.0629,2.0622,2.0642,2.0634,2.0657,2.0652,2.0695,2.0688,2.0692,2.069,2.0721,2.0718,2.0824,2.0838,2.0742,2.0743,2.0744,0,2.0587,2.0609,2.061,2.062,2.0623,2.0641,2.065,2.0636,2.0648,2.0657,2.0674,2.0693,2.0707,2.0742,2.074,2.0758,2.075,2.0787,2.0752,2.0755,2.0749,2.0747,2.0749,2.0793,2.0794,2.0795,2.0795,0,2.067,2.0664,2.0678,2.0691,2.0702,2.0712,2.072,2.0731,2.0717,2.0732,2.0752,2.0763,2.0786,2.0805,2.0821,2.0824,2.0808,2.0806,2.0814,2.0817,2.0818,2.0817,2.0709,2.0804,2.0803,2.0802,2.0802,2.0801,2.0731,2.0749,2.0752,2.0769,2.0773,2.0782,2.0799,2.0796,2.0812,2.0828,2.082,2.0844,2.0851,2.087,2.0876,2.0895,2.0881,2.0893,2.0896,2.0899,2.0902,2.0817,2.0899,2.0898,2.0898,2.0898,2.0898,0,2.0811,2.0812,2.0828,2.0839,2.0853,2.0836,2.0844,2.0857,2.0878,2.0885,2.0899,2.0923,2.0942,2.0942,2.096,2.0976,2.0969,2.0981,2.0979,2.098,2.0914,2.0905,2.0986,2.0986,2.0986,2.0986,2.0986,2.0986,2.0855,2.0884,2.0879,2.0912,2.0913,2.0935,2.0941,2.0949,2.0955,2.0982,2.0997,2.0996,2.1001,2.1019,2.1037,2.1036,2.1044,2.1058,2.1055,2.0993,2.0984,2.0976,2.0967,2.106,2.106,2.1119,2.1119,2.112]},{"header":{"parameterUnit":"m.s-1","parameterCategory":1,"la1":30.2991,"la2":30.254,"lo1":-89.0895,"lo2":-89.0444,"dy":0.0017,"dx":0.0017,"nx":28,"ny":28,"refTime":"2025-06-09T21:00:00:Z","depth":0,"parameterNumber":3,"parameterNumberName":"V-component_of_WINDS"},"data":[0,0,0,0,0,0,0,0,0,0,0,0,0,0,0,0,0,0,0,0,0,0,0,0,0,0,0,0,0,0,0,0,0,0,0,0,0,0,0,0,0,0,0,0,0,0,0,0,0,0,0,0,0,0,0,0,0,0,3.9433,3.9433,0,3.9497,3.9498,3.9499,3.9536,3.9536,3.9536,3.9536,3.9596,3.9597,3.9598,0,0,0,0,0,0,0,0,0,0,0,0,0,3.9334,3.9335,3.9432,3.9433,3.9434,3.9497,3.9498,3.9499,3.9536,3.9536,3.9536,3.9536,3.9595,3.9597,3.9599,0,0,0,0,0,0,0,0,0,0,0,0,0,3.9385,3.9336,3.9432,3.946,3.9463,3.9497,3.9498,3.9499,3.9536,3.9536,3.9536,3.9536,3.9595,3.9597,3.9599,3.9607,0,0,3.9605,3.9606,0,0,0,0,0,0,0,0,3.9382,3.9389,3.9455,3.9458,3.9462,3.9509,3.9485,3.9535,3.9536,3.9508,3.9536,3.9536,3.9566,3.9571,3.9582,3.961,3.9613,3.9606,3.9607,3.9608,3.9609,0,0,0,0,0,0,0,3.9379,3.9386,3.9458,3.9456,3.946,3.9467,3.9475,3.9495,3.9535,3.951,3.9513,3.9521,3.9568,3.958,3.9584,3.9614,3.9606,3.9608,3.9609,3.961,3.9651,3.965,0,0,0,0,0,0,3.9372,3.9383,3.9456,3.946,3.9422,3.9469,3.9477,3.9493,3.9535,3.9541,3.952,3.9522,3.9576,3.9581,3.9586,3.9598,3.9608,3.961,3.9611,3.9651,3.9651,3.965,0,0,0,0,0,0,3.9369,3.9378,3.9453,3.9422,3.9432,3.947,3.9488,3.9495,3.9507,3.9542,3.9549,3.9526,3.9576,3.9583,3.9602,3.9601,3.9611,3.9613,3.9651,3.9651,3.9651,3.9623,0,0,0,0,0,0,3.9366,3.9377,3.9382,3.9422,3.9434,3.947,3.9488,3.9496,3.9511,3.9514,3.9549,3.9555,3.9577,3.9599,3.9604,3.9604,3.9615,3.9651,3.9651,3.9651,3.9624,3.9622,3.962,0,0,0,0,0,3.9363,3.9371,3.9382,3.9391,3.9442,3.947,3.9477,3.9504,3.9511,3.9515,3.9538,3.9554,3.96,3.96,3.9607,3.9607,3.9652,3.9651,3.9651,3.9625,3.9622,3.962,0,0,0,0,0,0,3.9327,3.9376,3.939,3.9412,3.9437,3.9477,3.9483,3.95,3.9522,3.9523,3.9554,3.9562,3.9577,3.9594,3.9594,3.9617,3.9627,3.9628,3.9606,3.9603,3.9601,3.9596,3.9616,0,0,0,0,0,3.9322,3.9344,3.9384,3.9399,3.9412,3.9445,3.9458,3.9477,3.9503,3.9514,3.9538,3.9561,3.9581,3.9593,3.9613,3.9627,3.9634,3.963,3.9627,3.9625,3.9626,3.9633,3.9631,3.9649,3.9649,3.9649,0,0,3.9312,3.9341,3.9352,3.9393,3.9415,3.9434,3.9454,3.9473,3.9487,3.9516,3.9536,3.9554,3.9582,3.9598,3.9606,3.9613,3.9622,3.9625,3.9623,3.9624,3.9632,3.963,3.9629,3.9649,3.9649,3.9649,0,0,3.9302,3.9327,3.9342,3.9364,3.9397,3.9419,3.9423,3.946,3.9474,3.9495,3.9517,3.9532,3.9566,3.9584,3.9598,3.9594,3.9609,3.96,3.9588,3.9595,3.9593,3.9592,3.959,3.9589,3.96,3.96,3.96,0,3.9284,3.9316,3.9347,3.9366,3.9382,3.9411,3.9425,3.9444,3.948,3.949,3.9497,3.9539,3.956,3.958,3.9579,3.959,3.9593,3.9596,3.9591,3.959,3.959,3.9588,3.9587,3.9599,3.9599,3.9599,3.9599,0,3.9292,3.9313,3.9321,3.9358,3.9375,3.9391,3.9422,3.9435,3.9452,3.9473,3.9492,3.9518,3.9544,3.955,3.9566,3.9572,3.9575,3.9586,3.9597,3.9586,3.9585,3.9584,3.9597,3.9597,3.9597,3.9598,0,0,3.9262,3.9316,3.9319,3.9335,3.9374,3.939,3.9406,3.9433,3.9443,3.9467,3.948,3.9507,3.9518,3.9533,3.9551,3.9557,3.9551,3.9567,3.9569,3.9563,3.9558,3.9549,3.9548,3.9561,3.9561,3.9561,3.9555,0,3.9257,3.9291,3.9319,3.934,3.9359,3.9387,3.94,3.9424,3.9443,3.946,3.9481,3.95,3.9513,3.9522,3.9529,3.955,3.955,3.9551,3.9572,3.9572,3.9564,3.9547,3.9538,3.9531,3.9555,3.9555,3.9555,0,3.9257,3.9282,3.9306,3.9342,3.9351,3.9363,3.9389,3.9406,3.9433,3.9446,3.9463,3.9482,3.9498,3.9508,3.9529,3.9529,3.9538,3.955,3.955,3.9552,3.9562,3.9548,3.953,3.9528,3.9555,3.9555,3.9555,0,3.9232,3.9271,3.9291,3.9304,3.9347,3.9355,3.9372,3.9399,3.9413,3.9435,3.9444,3.9466,3.9479,3.9495,3.9518,3.9523,3.9536,3.9548,3.9546,3.9545,3.9547,3.9547,3.9529,3.9555,3.9555,3.9555,3.9555,0,3.9224,3.9237,3.928,3.9292,3.9307,3.9338,3.9351,3.937,3.9394,3.9408,3.9432,3.9445,3.9476,3.9491,3.951,3.9523,3.9529,3.9538,3.9543,3.9536,3.9535,3.9542,3.9543,3.9554,3.9554,3.9554,3.9555,0,3.9198,3.9228,3.9251,3.9289,3.9299,3.9308,3.934,3.9351,3.9372,3.939,3.9395,3.9427,3.9446,3.9472,3.9498,3.9511,3.9522,3.9529,3.9513,3.9516,3.9512,3.9512,3.9499,3.9498,3.9524,3.9524,3.9524,0,3.9191,3.9202,3.9242,3.9255,3.9272,3.9292,3.9306,3.9336,3.935,3.938,3.9387,3.9409,3.9428,3.9457,3.948,3.95,3.9508,3.9502,3.9511,3.9503,3.9507,3.9506,3.9506,3.95,3.9499,3.9499,3.9499,0,3.9174,3.9189,3.921,3.9237,3.9254,3.9275,3.9298,3.9306,3.934,3.9353,3.9375,3.9389,3.9417,3.9437,3.9461,3.9476,3.9492,3.9496,3.9496,3.9489,3.9479,3.9483,3.9506,3.9496,3.9496,3.9496,3.9496,3.9496,3.9157,3.9168,3.9198,3.9221,3.9241,3.9261,3.9274,3.9296,3.9315,3.9342,3.9357,3.9377,3.9401,3.9435,3.9449,3.9464,3.947,3.9471,3.9471,3.947,3.9468,3.9477,3.9468,3.9468,3.9468,3.9468,3.9468,0,3.9141,3.9162,3.9183,3.9214,3.9231,3.9247,3.9272,3.9285,3.9303,3.9325,3.9344,3.9367,3.9387,3.9412,3.9433,3.9439,3.9447,3.9443,3.9443,3.9446,3.9461,3.9459,3.9437,3.9437,3.9437,3.9437,3.9437,3.9437,3.9135,3.9154,3.9171,3.92,3.922,3.9241,3.9254,3.9272,3.929,3.9315,3.9333,3.935,3.9372,3.9395,3.9413,3.942,3.9425,3.942,3.9428,3.9442,3.9445,3.9448,3.9445,3.9421,3.9421,3.9412,3.9412,3.9411]}]]